x

8654467 - Hatteras, Nc (hcgn7) Weather Station

9:54am - Sun 20th Apr 2014 All times are EDT. -4 hours from GMT.

  • Wind
    15mph, 25mph gusts
  • Sea Temp 56°f
  • Air Temp 57°f
  • Sea Pressure 1018.3mb
  • 8654467 - Hatteras, Nc
  • 8654467 - Hatteras, Nc

More Historic Weather Station data

Upgrade to MSW Pro to gain access to the past 30 days of data for over 8000 Wavebouys and Weather Stations around the globe.

Join Pro

Comparision Forecast

View Surf forecast
   
Sun 04/20 9:54am 15 25 mph 1018.3mb 56f 57f
9:48am 14 20 mph 1018.2mb 56f 57f
9:42am 15 20 mph 1018.1mb 56f 56f
9:36am 14 21 mph 1018.1mb 56f 56f
9:30am 15 21 mph 1018.1mb 56f 56f
9:24am 14 20 mph 1018mb 56f 55f
9:18am 13 21 mph 1018mb 56f 55f
9:12am 15 21 mph 1017.9mb 56f 55f
9:06am 13 22 mph 1017.8mb 56f 55f
9:00am 13 23 mph 1017.8mb 56f 55f
8:54am 11 22 mph 1017.7mb 56f 55f
8:48am 11 22 mph 1017.7mb 56f 55f
8:42am 15 21 mph 1017.8mb 56f 55f
8:36am 15 22 mph 1017.7mb 56f 55f
8:30am 15 22 mph 1017.8mb 56f 55f
8:24am 15 21 mph 1017.6mb 56f 55f
8:18am 15 24 mph 1017.5mb 56f 55f
8:12am 13 21 mph 1017.5mb 56f 55f
8:06am 15 22 mph 1017.5mb 56f 55f
8:00am 13 23 mph 1017.5mb 56f 55f
7:54am 16 25 mph 1017.4mb 56f 55f
7:48am 15 24 mph 1017.4mb 56f 55f
7:42am 14 21 mph 1017.4mb 56f 55f
7:36am 14 23 mph 1017.4mb 56f 55f
7:30am 14 23 mph 1017.4mb 56f 55f
7:24am 14 22 mph 1017.4mb 56f 55f
7:18am 17 25 mph 1017.4mb 56f 55f
7:12am 16 28 mph 1017.3mb 56f 55f
7:06am 15 25 mph 1017.3mb 56f 55f
7:00am 18 25 mph 1017.2mb 56f 56f
6:54am 15 25 mph 1017.1mb 56f 55f
6:48am 17 25 mph 1017.1mb 56f 55f
6:42am 16 25 mph 1017mb 56f 55f
6:36am 17 26 mph 1017.1mb 56f 55f
6:30am 16 26 mph 1017.1mb 56f 55f
6:24am 15 24 mph 1017.1mb 56f 55f
6:18am 17 25 mph 1017.2mb 56f 55f
6:12am 20 25 mph 1017.2mb 56f 56f
6:06am 18 25 mph 1017.2mb 56f 56f
6:00am 20 26 mph 1017.2mb 56f 56f
5:54am 18 25 mph 1017.2mb 56f 56f
5:48am 20 28 mph 1017.2mb 56f 55f
5:42am 20 26 mph 1017.1mb 56f 55f
5:36am 18 26 mph 1017mb 56f 55f
5:30am 20 25 mph 1017.1mb 56f 55f
5:24am 20 28 mph 1017.3mb 56f 55f
5:18am 21 28 mph 1017.4mb 56f 55f
5:12am 18 28 mph 1017.5mb 56f 55f
5:06am 18 28 mph 1017.6mb 56f 55f
5:00am 17 24 mph 1017.7mb 56f 55f
4:54am 18 29 mph 1017.8mb 56f 55f
4:48am 18 24 mph 1017.8mb 56f 55f
4:42am 21 28 mph 1017.7mb 56f 55f
4:36am 18 25 mph 1017.8mb 56f 55f
4:30am 20 26 mph 1017.9mb 56f 55f
4:24am 18 28 mph 1017.9mb 56f 55f
4:18am 18 28 mph 1017.9mb 56f 55f
4:12am 20 26 mph 1018mb 56f 55f
4:06am 20 28 mph 1017.9mb 56f 55f
4:00am 18 29 mph 1018mb 56f 55f
3:54am 20 28 mph 1018mb 56f 55f
3:48am 17 25 mph 1018mb 56f 55f
3:42am 20 24 mph 1017.9mb 56f 55f
3:36am 17 25 mph 1018.1mb 56f 55f
3:30am 16 26 mph 1018.1mb 56f 55f
3:24am 18 26 mph 1018.2mb 56f 55f
3:18am 20 26 mph 1018.2mb 56f 55f
3:12am 18 26 mph 1018.2mb 56f 55f
3:06am 17 26 mph 1018.2mb 56f 55f
3:00am 17 26 mph 1018.1mb 56f 55f
2:54am 16 26 mph 1018.1mb 56f 55f
2:48am 13 25 mph 1018.1mb 56f 55f
2:42am 15 29 mph 1018.2mb 56f 55f
2:36am 16 26 mph 1018.1mb 56f 55f
2:30am 17 29 mph 1018.2mb 56f 55f
2:24am 18 29 mph 1018.3mb 56f 55f
2:18am 18 28 mph 1018.6mb 56f 55f
2:12am 15 28 mph 1018.8mb 56f 55f
2:06am 15 24 mph 1018.8mb 56f 55f
2:00am 13 22 mph 1018.8mb 56f 56f
1:54am 10 22 mph 1018.9mb 56f 56f
1:48am 16 23 mph 1019.1mb 56f 56f
1:42am 11 25 mph 1019.3mb 56f 55f
1:36am 14 22 mph 1019.3mb 56f 55f
1:30am 14 22 mph 1019.3mb 56f 55f
1:24am 15 25 mph 1019.4mb 56f 55f
1:18am 17 26 mph 1019.4mb 56f 55f
1:12am 16 26 mph 1019.4mb 56f 55f
1:06am 15 26 mph 1019.3mb 56f 55f
1:00am 17 25 mph 1019.3mb 56f 55f
12:54am 16 25 mph 1019.3mb 56f 55f
12:48am 17 26 mph 1019.3mb 56f 55f
12:42am 18 26 mph 1019.3mb 56f 55f
12:36am 17 24 mph 1019.4mb 56f 55f
12:30am 18 28 mph 1019.4mb 56f 55f
12:24am 16 23 mph 1019.4mb 56f 55f
12:18am 15 22 mph 1019.4mb 56f 55f
12:12am 16 24 mph 1019.4mb 56f 55f
12:06am 14 22 mph 1019.5mb 56f 55f
12:00am 16 24 mph 1019.5mb 56f 55f
Sat 04/19 11:54pm 15 22 mph 1019.6mb 56f 55f
11:48pm 16 24 mph 1019.5mb 56f 55f
11:42pm 16 25 mph 1019.5mb 56f 55f
11:36pm 18 26 mph 1019.5mb 56f 55f
11:30pm 14 25 mph 1019.7mb 56f 55f
11:24pm 16 24 mph 1019.7mb 56f 55f
11:18pm 15 22 mph 1019.8mb 56f 55f
11:12pm 13 20 mph 1019.8mb 56f 55f
11:06pm 11 18 mph 1020mb 56f 55f
11:00pm 8 16 mph 1020.1mb 56f 55f
10:54pm 9 22 mph 1020.1mb 56f 55f
10:48pm 15 23 mph 1020.1mb 56f 55f
10:42pm 11 21 mph 1020mb 56f 55f
10:36pm 13 18 mph 1020mb 56f 55f
10:30pm 10 16 mph 1020mb 56f 55f
10:24pm 9 18 mph 1020.1mb 56f 55f
10:18pm 10 18 mph 1019.9mb 56f 54f
10:12pm 11 18 mph 1020mb 56f 54f
10:06pm 11 18 mph 1020mb 56f 54f
10:00pm 13 22 mph 1020mb 56f 54f
9:54pm 14 22 mph 1020mb 56f 54f
9:48pm 11 21 mph 1019.9mb 56f 54f
9:42pm 13 21 mph 1019.9mb 56f 54f
9:36pm 10 22 mph 1020mb 56f 54f
9:30pm 14 21 mph 1019.9mb 56f 54f
9:24pm 14 22 mph 1019.9mb 56f 54f
9:18pm 13 22 mph 1019.9mb 56f 54f
9:12pm 14 23 mph 1019.8mb 56f 54f
9:06pm 15 22 mph 1019.8mb 56f 54f
9:00pm 13 24 mph 1019.7mb 56f 54f
8:54pm 14 23 mph 1019.6mb 56f 54f
8:48pm 14 22 mph 1019.7mb 56f 54f
8:42pm 11 22 mph 1019.7mb 56f 54f
8:36pm 14 23 mph 1019.7mb 56f 54f
8:30pm 15 25 mph 1019.6mb 56f 54f
8:24pm 17 25 mph 1019.5mb 56f 53f
8:18pm 14 25 mph 1019.3mb 56f 54f
8:12pm 13 22 mph 1019.2mb 56f 54f
8:06pm 15 25 mph 1019mb 56f 54f
8:00pm 14 22 mph 1019.1mb 56f 54f
7:54pm 14 25 mph 1018.9mb 56f 54f
7:48pm 16 23 mph 1018.7mb 56f 54f
7:42pm 13 28 mph 1018.6mb 56f 54f
7:36pm 16 29 mph 1018mb 56f 54f
7:30pm 18 29 mph 1017.9mb 56f 54f
7:24pm 16 24 mph 1018.4mb 56f 54f
7:18pm 10 22 mph 1018.9mb 56f 53f
7:12pm 15 25 mph 1018.5mb 56f 53f
7:06pm 16 31 mph 1017.6mb 56f 53f
7:00pm 23 31 mph 1016.9mb 56f 53f
6:54pm 24 32 mph 1016.5mb 56f 53f
6:48pm 24 32 mph 1017mb 56f 53f
6:42pm 21 30 mph 1017.8mb 56f 53f
6:36pm 17 28 mph 1018.2mb 56f 53f
6:30pm 18 26 mph 1018.5mb 56f 53f
6:24pm 17 28 mph 1018.7mb 56f 53f
6:18pm 17 26 mph 1018.9mb 56f 53f
6:12pm 18 29 mph 1019mb 56f 53f
6:06pm 17 25 mph 1019.1mb 56f 53f
6:00pm 16 29 mph 1019.1mb 56f 53f
5:54pm 16 24 mph 1019.2mb 56f 53f
5:48pm 16 26 mph 1019.2mb 56f 53f
5:42pm 17 25 mph 1019.3mb 56f 54f
5:36pm 15 23 mph 1019.2mb 56f 54f
5:30pm 15 25 mph 1019.2mb 56f 54f
5:24pm 15 25 mph 1019.1mb 56f 54f
5:18pm 16 22 mph 1019.1mb 56f 54f
5:12pm 16 23 mph 1019mb 56f 54f
5:06pm 17 25 mph 1018.9mb 56f 54f
5:00pm 16 25 mph 1018.9mb 56f 54f
4:54pm 15 25 mph 1018.8mb 56f 54f
4:48pm 18 25 mph 1018.8mb 56f 54f
4:42pm 17 29 mph 1018.7mb 56f 54f
4:36pm 18 25 mph 1018.8mb 56f 54f
4:30pm 17 28 mph 1019mb 56f 54f
4:24pm 15 24 mph 1019.2mb 56f 54f
4:18pm 13 21 mph 1019.3mb 56f 54f
4:12pm 14 23 mph 1019.2mb 56f 54f
4:06pm 16 24 mph 1019.3mb 56f 54f
4:00pm 15 24 mph 1019.3mb 56f 54f
3:54pm 15 23 mph 1019.3mb 56f 55f
3:48pm 17 25 mph 1019.3mb 56f 55f
3:42pm 16 23 mph 1019.1mb 56f 55f
3:36pm 17 22 mph 1019.1mb 56f 55f
3:30pm 17 24 mph 1018.8mb 56f 56f
3:24pm 16 28 mph 1018.9mb 56f 56f
3:18pm 17 24 mph 1019mb 56f 56f
3:12pm 20 30 mph 1018.9mb 56f 56f
3:06pm 18 29 mph 1018.7mb 56f 56f
3:00pm 15 28 mph 1019.1mb 56f 56f
2:54pm 21 29 mph 1019mb 56f 56f
2:48pm 18 26 mph 1019mb 56f 56f
2:42pm 20 26 mph 1019mb 56f 56f
2:36pm 20 30 mph 1019.1mb 56f 56f
2:30pm 20 28 mph 1018.9mb 56f 56f
2:24pm 18 28 mph 1019mb 56f 56f
2:18pm 18 26 mph 1019mb 56f 56f
2:12pm 21 28 mph 1019.1mb 56f 56f
2:06pm 18 28 mph 1019.1mb 56f 56f
2:00pm 20 28 mph 1019.1mb 56f 56f
1:54pm 17 29 mph 1018.9mb 56f 56f
1:48pm 21 28 mph 1018.8mb 56f 56f
1:42pm 21 29 mph 1018.9mb 56f 56f
1:36pm 20 30 mph 1018.8mb 56f 56f
1:30pm 21 30 mph 1018.9mb 56f 56f
1:24pm 18 29 mph 1019mb 56f 55f
1:18pm 18 26 mph 1019mb 56f 55f
1:12pm 16 25 mph 1019.2mb 56f 55f
1:06pm 15 30 mph 1019.4mb 56f 55f
1:00pm 15 26 mph 1019.5mb 56f 55f
12:54pm 18 29 mph 1019.3mb 56f 55f
12:48pm 21 28 mph 1019.1mb 56f 55f
12:42pm 17 28 mph 1019.7mb 56f 55f
12:36pm 16 24 mph 1020.4mb 56f 55f
12:30pm 11 17 mph 1020.7mb 56f 55f
12:24pm 11 21 mph 1020.7mb 56f 55f
12:18pm 10 21 mph 1020.6mb 56f 55f
12:12pm 10 22 mph 1020.4mb 56f 55f
12:06pm 14 22 mph 1020.1mb 56f 55f
12:00pm 18 30 mph 1019.7mb 56f 54f
11:54am 18 32 mph 1019.5mb 56f 54f
11:48am 20 32 mph 1019.4mb 56f 54f
11:42am 21 30 mph 1019.3mb 56f 54f
11:36am 20 31 mph 1019.5mb 56f 54f
11:30am 18 28 mph 1019.6mb 56f 54f
11:24am 20 29 mph 1019.7mb 56f 54f
11:18am 18 26 mph 1019.9mb 56f 53f
11:12am 21 29 mph 1020mb 56f 53f
11:06am 18 26 mph 1019.7mb 56f 53f
11:00am 21 29 mph 1019.8mb 56f 53f
10:54am 18 28 mph 1019.9mb 56f 53f
10:48am 23 29 mph 1019.7mb 56f 53f
10:42am 22 31 mph 1019.5mb 56f 52f
10:36am 24 33 mph 1019.5mb 56f 52f
10:30am 29 36 mph 1019.4mb 56f 52f
10:24am 25 31 mph 1019.6mb 56f 52f
10:18am 24 31 mph 1019.7mb 56f 52f
10:12am 25 33 mph 1019.8mb 56f 52f
10:06am 22 32 mph 1020mb 56f 52f
10:00am 24 32 mph 1019.8mb 56f 52f
9:54am 24 31 mph 1019.8mb 56f 52f
9:48am 23 32 mph 1020.1mb 56f 52f
9:42am 23 34 mph 1020.1mb 56f 52f
9:36am 25 33 mph 1019.8mb 56f 52f
9:30am 22 31 mph 1019.8mb 56f 52f
9:24am 29 36 mph 1019.6mb 57f 52f
9:18am 25 34 mph 1019.6mb 57f 52f
9:12am 22 34 mph 1019.7mb 57f 52f
9:06am 23 34 mph 1019.7mb 57f 52f
9:00am 22 32 mph 1019.5mb 57f 52f
8:54am 23 32 mph 1019.7mb 57f 52f
8:48am 22 31 mph 1019.7mb 57f 52f
8:42am 22 28 mph 1019.7mb 57f 52f
8:36am 24 30 mph 1019.6mb 57f 52f
8:30am 20 29 mph 1020.1mb 57f 52f
8:24am 21 28 mph 1020.1mb 57f 52f
8:18am 23 30 mph 1019.9mb 57f 53f
8:12am 25 32 mph 1019.6mb 57f 53f
8:06am 24 34 mph 1019.4mb 57f 53f
8:00am 26 33 mph 1019.2mb 57f 53f
7:54am 23 32 mph 1019.1mb 57f 53f
7:48am 24 32 mph 1019mb 57f 53f
7:42am 22 31 mph 1019.2mb 57f 53f
7:36am 21 28 mph 1019.1mb 57f 54f
7:30am 20 30 mph 1019.2mb 57f 54f
7:24am 22 28 mph 1019.2mb 57f 54f
7:18am 20 26 mph 1019.2mb 57f 54f
7:12am 18 24 mph 1019.4mb 57f 54f
7:06am 20 25 mph 1019.3mb 57f 54f
7:00am 18 25 mph 1019.3mb 57f 54f
6:54am 18 25 mph 1019.3mb 58f 54f
6:48am 17 25 mph 1019.3mb 58f 54f
6:42am 20 26 mph 1019.1mb 58f 53f
6:36am 18 26 mph 1019.2mb 58f 53f
6:30am 17 23 mph 1019mb 58f 53f
6:24am 15 25 mph 1019.1mb 58f 53f
6:18am 17 25 mph 1019mb 58f 53f
6:12am 17 23 mph 1019mb 58f 53f
6:06am 16 24 mph 1019.2mb 58f 53f
6:00am 18 24 mph 1019.2mb 58f 53f
5:54am 16 24 mph 1019.3mb 58f 53f
5:48am 16 23 mph 1019.3mb 58f 53f
5:42am 16 23 mph 1019.3mb 58f 53f
5:36am 17 23 mph 1019.3mb 58f 53f
5:30am 16 24 mph 1019mb 58f 53f
5:24am 14 22 mph 1019.2mb 58f 53f
5:18am 15 21 mph 1019.2mb 58f 53f
5:12am 15 22 mph 1019.3mb 58f 53f
5:06am 14 21 mph 1019.4mb 58f 53f
5:00am 16 22 mph 1019.3mb 58f 53f
4:54am 16 24 mph 1019.3mb 58f 53f
4:48am 17 22 mph 1019.2mb 58f 53f
4:42am 14 20 mph 1019.3mb 58f 53f
4:36am 15 24 mph 1019.4mb 58f 53f
4:30am 15 21 mph 1019.2mb 58f 53f
4:24am 16 22 mph 1019.4mb 58f 53f
4:18am 16 23 mph 1019.6mb 58f 53f
4:12am 15 22 mph 1019.6mb 58f 53f
4:06am 15 22 mph 1019.6mb 58f 53f
4:00am 15 22 mph 1019.8mb 58f 53f
3:54am 15 21 mph 1019.8mb 58f 53f
3:48am 16 20 mph 1019.8mb 58f 53f
3:42am 13 20 mph 1020mb 58f 53f
3:36am 15 18 mph 1020.2mb 58f 53f
3:30am 14 21 mph 1020.2mb 58f 53f
3:24am 15 21 mph 1020.1mb 58f 53f
3:18am 16 21 mph 1020.1mb 58f 53f
3:12am 13 20 mph 1020.2mb 58f 53f
3:06am 13 16 mph 1020.3mb 58f 53f
3:00am 11 17 mph 1020.6mb 57f 53f
2:54am 13 18 mph 1020.2mb 57f 53f
2:48am 14 17 mph 1020.3mb 57f 53f
2:42am 11 20 mph 1020.5mb 57f 53f
2:36am 13 17 mph 1020.6mb 57f 53f
2:30am 11 18 mph 1020.9mb 57f 53f
2:24am 13 20 mph 1020.8mb 57f 53f
2:18am 15 22 mph 1020.8mb 57f 53f
2:12am 15 22 mph 1021.1mb 57f 53f
2:06am 14 18 mph 1021.1mb 57f 53f
2:00am 13 22 mph 1021.2mb 57f 53f
1:54am 16 20 mph 1021.4mb 57f 52f
1:48am 13 17 mph 1021.9mb 57f 53f
1:42am 11 18 mph 1022mb 57f 53f
1:36am 13 20 mph 1022.2mb 57f 53f
1:30am 13 21 mph 1022.3mb 57f 53f
1:24am 13 20 mph 1022.3mb 57f 53f
1:18am 14 21 mph 1022.5mb 57f 53f
1:12am 10 18 mph 1022.6mb 57f 53f
1:06am 13 21 mph 1022.6mb 56f 52f
1:00am 11 21 mph 1022.6mb 56f 53f
12:54am 11 21 mph 1022.7mb 56f 53f
12:48am 11 18 mph 1022.8mb 56f 53f
12:42am 11 22 mph 1022.9mb 56f 53f
12:36am 14 20 mph 1023mb 56f 53f
12:30am 10 18 mph 1023.3mb 56f 52f
12:24am 14 24 mph 1023.2mb 56f 53f
12:18am 18 23 mph 1023.5mb - 52f
12:12am 18 25 mph 1023.5mb 56f 53f
12:06am 21 24 mph 1023.8mb 56f 53f
12:00am 16 21 mph 1024mb 56f 53f
Fri 04/18 11:54pm 16 21 mph 1023.9mb 56f 53f
11:48pm 11 18 mph 1023.9mb 56f 53f
11:42pm 13 18 mph 1023.9mb 56f 53f
11:36pm 8 14 mph 1024.1mb 56f 53f
11:30pm 8 17 mph 1024.1mb 56f 53f
11:24pm 13 18 mph 1023.8mb 56f 53f
11:18pm 10 16 mph 1023.8mb 56f 53f
11:12pm 9 17 mph 1023.9mb 56f 53f
11:06pm 9 18 mph 1024mb 56f 52f
11:00pm 10 16 mph 1024.1mb 56f 52f
10:54pm 11 18 mph 1024mb 56f 51f
10:48pm 13 16 mph 1023.8mb 56f 51f
10:42pm 10 18 mph 1024mb 56f 51f
10:36pm 11 16 mph 1024mb 56f 51f
10:30pm 14 18 mph 1024.2mb 56f 51f
10:24pm 13 21 mph 1024.1mb 56f 51f
10:18pm 14 20 mph 1023.9mb 56f 51f
10:12pm 14 20 mph 1023.7mb 56f 51f
10:06pm 16 24 mph 1023.7mb 56f 51f
10:00pm 16 23 mph 1023.6mb 56f 51f
9:54pm 16 23 mph 1023.5mb 56f 51f
9:48pm 17 23 mph 1023.5mb 56f 51f
9:42pm 18 28 mph 1023.5mb 56f 51f
9:36pm 18 25 mph 1023.5mb 56f 51f
9:30pm 18 24 mph 1023.7mb 56f 51f
9:24pm 14 22 mph 1024mb 56f 51f
9:18pm 11 22 mph 1024.5mb 56f 52f
9:12pm 11 22 mph 1024.8mb 56f 52f
9:06pm 13 21 mph 1024.7mb 56f 51f
9:00pm 13 23 mph 1024.7mb 56f 51f
8:54pm 11 22 mph 1024.7mb 56f 51f
8:48pm 11 25 mph 1024.7mb 56f 51f
8:42pm 13 25 mph 1024.7mb 56f 51f
8:36pm 13 20 mph 1024.7mb 56f 52f
8:30pm 9 20 mph 1024.8mb 56f 52f
8:24pm 14 21 mph 1024.6mb 56f 51f
8:18pm 10 20 mph 1024.6mb 56f 51f
8:12pm 13 20 mph 1024.5mb 56f 51f
8:06pm 11 20 mph 1024.4mb 56f 52f
8:00pm 13 23 mph 1024.4mb 56f 51f
7:54pm 14 21 mph 1024.2mb 56f 51f
7:48pm 14 22 mph 1024.2mb 56f 51f
7:42pm 14 22 mph 1024.3mb 56f 51f
7:36pm 11 21 mph 1024.3mb 56f 51f
7:30pm 14 22 mph 1024.4mb 56f 51f
7:24pm 14 21 mph 1024.2mb 56f 51f
7:18pm 14 21 mph 1024.1mb 56f 51f
7:12pm 14 20 mph 1024.2mb 56f 51f
7:06pm 13 22 mph 1024.3mb 56f 51f
7:00pm 14 20 mph 1024.4mb 56f 51f
6:54pm 15 21 mph 1024.5mb 56f 51f
6:48pm 16 23 mph 1024.5mb 56f 51f
6:42pm 16 22 mph 1024.4mb 56f 51f
6:36pm 14 22 mph 1024.3mb 56f 51f
6:30pm 15 21 mph 1024.5mb 56f 51f
6:24pm 15 20 mph 1024.7mb 56f 51f
6:18pm 14 22 mph 1024.6mb 56f 51f
6:12pm 13 21 mph 1024.6mb 56f 51f
6:06pm 14 22 mph 1024.9mb 56f 51f
6:00pm 17 22 mph 1024.9mb 56f 51f
5:54pm 13 21 mph 1024.8mb 56f 51f
5:48pm 14 22 mph 1024.7mb 56f 52f
5:42pm 15 24 mph 1024.6mb 56f 51f
5:36pm 17 24 mph 1024.5mb 56f 51f
5:30pm 18 25 mph 1024.5mb 56f 51f
5:24pm 23 28 mph 1024.6mb 56f 51f
5:18pm 23 26 mph 1024.7mb 56f 51f
5:12pm 22 29 mph 1024.6mb 56f 51f
5:06pm 23 29 mph 1024.8mb 56f 51f
5:00pm 21 28 mph 1024.9mb 56f 51f
4:54pm 20 26 mph 1024.8mb 56f 51f
4:48pm 24 29 mph 1025mb 56f 51f
4:42pm 23 28 mph 1024.9mb 56f 51f
4:36pm 22 29 mph 1025mb 56f 51f
4:30pm 23 29 mph 1025.2mb 56f 51f
4:24pm 22 29 mph 1025.2mb 56f 51f
4:18pm 17 26 mph 1025.5mb 56f 51f
4:12pm 22 29 mph 1025.7mb 55f 51f
4:06pm 22 28 mph 1025.8mb 55f 51f
4:00pm 24 29 mph 1026mb 55f 51f
3:54pm 22 28 mph 1026.2mb 55f 51f
3:48pm 24 28 mph 1026.2mb 55f 51f
3:42pm 23 29 mph 1026.4mb 55f 51f
3:36pm 24 29 mph 1026.4mb 55f 51f
3:30pm 26 29 mph 1026.5mb 55f 51f
3:24pm 23 28 mph 1026.7mb 55f 51f
3:18pm 23 29 mph 1026.8mb 55f 51f
3:12pm 24 29 mph 1026.8mb 55f 51f
3:06pm 24 29 mph 1026.7mb 55f 51f
3:00pm 24 30 mph 1026.7mb 55f 51f
2:54pm 26 29 mph 1026.7mb 55f 51f
2:48pm 25 30 mph 1026.9mb 55f 51f
2:42pm 25 29 mph 1027.2mb 55f 51f
2:36pm 23 28 mph 1027.2mb 55f 51f
2:30pm 24 26 mph 1027.2mb 55f 51f
2:24pm 24 28 mph 1027.4mb 55f 51f
2:18pm 24 26 mph 1027.5mb 55f 51f
2:12pm 23 26 mph 1027.5mb 55f 51f
2:06pm 24 28 mph 1027.6mb 55f 51f
2:00pm 24 28 mph 1027.6mb 55f 51f
1:54pm 24 28 mph 1027.7mb 55f 51f
1:48pm 24 28 mph 1027.7mb 55f 51f
1:42pm 24 26 mph 1027.9mb 55f 51f
1:36pm 24 26 mph 1027.7mb 55f 51f
1:30pm 22 28 mph 1027.6mb 55f 51f
1:24pm 24 28 mph 1027.5mb 55f 51f
1:18pm 25 28 mph 1027.5mb 55f 51f
1:12pm 22 29 mph 1027.5mb 55f 51f
1:06pm 24 28 mph 1027.6mb 55f 51f
1:00pm 22 28 mph 1027.7mb 55f 51f
12:54pm 25 29 mph 1027.7mb 55f 51f
12:48pm 23 29 mph 1027.9mb 55f 51f
12:42pm 26 29 mph 1028mb 55f 50f
12:36pm 24 29 mph 1028mb 55f 50f
12:30pm 26 30 mph 1028mb 55f 50f
12:24pm 24 29 mph 1028.2mb 55f 50f
12:18pm 24 30 mph 1028.2mb 55f 50f
12:12pm 23 28 mph 1028.4mb 55f 50f
12:06pm 25 29 mph 1028.5mb 55f 50f
12:00pm 24 29 mph 1028.5mb 55f 50f
11:54am 24 29 mph 1028.8mb 55f 50f
11:48am 24 28 mph 1028.7mb 55f 50f
11:42am 25 29 mph 1028.8mb 55f 50f
11:36am 23 29 mph 1028.6mb 55f 50f
11:30am 28 30 mph 1028.7mb 55f 49f
11:24am 25 30 mph 1028.7mb 55f 50f
11:18am 26 31 mph 1028.6mb 55f 50f
11:12am 26 30 mph 1028.7mb 55f 49f
11:06am 25 30 mph 1028.6mb 55f 50f
11:00am 28 32 mph 1028.3mb 55f 49f
10:54am 24 30 mph 1028.4mb 55f 50f
10:48am 26 31 mph 1028.6mb 55f 49f
10:42am 26 31 mph 1028.6mb 55f 49f
10:36am 25 30 mph 1028.6mb 55f 49f
10:30am 23 29 mph 1028.7mb 55f 49f
10:24am 25 30 mph 1028.7mb 55f 49f
10:18am 23 29 mph 1028.7mb 55f 49f
10:12am 22 29 mph 1028.6mb 55f 49f
10:06am 23 28 mph 1028.6mb 55f 49f
10:00am 18 28 mph 1028.5mb 55f 49f
9:54am 25 30 mph 1028.5mb 55f 49f
9:48am 22 29 mph 1028.4mb 55f 48f
9:42am 21 25 mph 1028.6mb 55f 48f
9:36am 21 26 mph 1028.5mb 55f 48f
9:30am 20 28 mph 1028.4mb 55f 48f
9:24am 20 31 mph 1028.5mb 55f 48f
9:18am 22 30 mph 1028.3mb 55f 49f
9:12am 21 29 mph 1028.4mb 55f 48f
9:06am 26 31 mph 1028.3mb 55f 49f
9:00am 23 31 mph 1028.3mb 55f 49f
8:54am 18 30 mph 1028.4mb 55f 48f
8:48am 25 31 mph 1028.5mb 55f 49f
8:42am 25 31 mph 1028.5mb 55f 49f
8:36am 24 31 mph 1028.2mb 55f 49f
8:30am 26 32 mph 1028mb 55f 49f
8:24am 25 31 mph 1027.9mb 55f 49f
8:18am 24 30 mph 1028mb 55f 49f
8:12am 23 31 mph 1028mb 55f 49f
8:06am 25 29 mph 1028mb 55f 49f
8:00am 23 29 mph 1027.9mb 55f 49f
7:54am 26 31 mph 1027.8mb 55f 49f
7:48am 21 31 mph 1028.2mb 55f 49f
7:42am 25 32 mph 1028mb 55f 49f
7:36am 25 29 mph 1027.9mb 55f 49f
7:30am 26 30 mph 1028mb 55f 49f
7:24am 26 30 mph 1028mb 55f 49f
7:18am 26 31 mph 1028mb 55f 49f
7:12am 22 29 mph 1028.1mb 55f 49f
7:06am 26 32 mph 1028.1mb 55f 49f
7:00am 29 32 mph 1028mb 55f 49f
6:54am 25 31 mph 1028mb 55f 49f
6:48am 28 31 mph 1027.9mb 55f 50f
6:42am 26 30 mph 1027.7mb 55f 49f
6:36am 28 31 mph 1027.8mb 55f 49f
6:30am 26 29 mph 1027.8mb 55f 50f
6:24am 21 28 mph 1027.9mb 55f 50f
6:18am 17 28 mph 1027.9mb 55f 50f
6:12am 22 29 mph 1027.8mb 55f 50f
6:06am 18 26 mph 1028mb 55f 50f
6:00am 22 28 mph 1027.9mb 55f 50f
5:54am 20 28 mph 1027.8mb 55f 50f
5:48am 22 29 mph 1027.6mb 55f 50f
5:42am 18 26 mph 1027.5mb 55f 50f
5:36am 15 29 mph 1027.5mb 55f 50f
5:30am 20 26 mph 1027.4mb 55f 50f
5:24am 11 23 mph 1027.5mb 55f 51f
5:18am 11 24 mph 1027.7mb 55f 51f
5:12am 20 29 mph 1027.5mb 55f 50f
5:06am 15 25 mph 1027.7mb 56f 51f
5:00am 20 25 mph 1027.6mb 56f 50f
4:54am 18 24 mph 1027.7mb 56f 50f
4:48am 17 23 mph 1027.8mb 56f 50f
4:42am 18 24 mph 1027.7mb 56f 50f
4:36am 16 24 mph 1027.8mb 56f 50f
4:30am 16 23 mph 1027.7mb 56f 50f
4:24am 13 26 mph 1027.7mb 56f 50f
4:18am 13 22 mph 1027.8mb 56f 51f
4:12am 13 25 mph 1027.9mb 56f 51f
4:06am 20 28 mph 1027.7mb 56f 51f
4:00am 14 28 mph 1027.8mb 56f 51f
3:54am 18 28 mph 1027.7mb 56f 50f
3:48am 22 31 mph 1027.7mb 56f 50f
3:42am 16 25 mph 1027.6mb 56f 51f
3:36am 22 29 mph 1027.5mb 56f 50f
3:30am 14 24 mph 1027.6mb 56f 51f
3:24am 14 25 mph 1027.6mb 56f 51f
3:18am 14 28 mph 1027.8mb 56f 51f
3:12am 15 25 mph 1027.8mb 56f 51f
3:06am 14 25 mph 1027.9mb 56f 51f
3:00am 17 25 mph 1027.8mb 56f 50f
2:54am 16 25 mph 1027.9mb 56f 51f
2:48am 13 24 mph 1028mb 56f 51f
2:42am 14 24 mph 1028mb 56f 51f
2:36am 15 24 mph 1028.1mb 56f 51f
2:30am 16 25 mph 1028mb 56f 51f
2:24am 18 26 mph 1028.1mb 56f 51f
2:18am 11 28 mph 1028.3mb 56f 51f
2:12am 15 26 mph 1028.3mb 56f 51f
2:06am 17 23 mph 1028.5mb 56f 51f
2:00am 15 23 mph 1028.7mb 56f 51f
1:54am 16 24 mph 1028.7mb 56f 51f
1:48am 14 22 mph 1028.8mb 56f 51f
1:42am 14 26 mph 1028.8mb 56f 51f
1:36am 13 23 mph 1028.9mb 56f 51f
1:30am 11 23 mph 1029.2mb 56f 51f
1:24am 17 28 mph 1029.2mb 56f 51f
1:18am 14 24 mph 1029.4mb 56f 51f
1:12am 21 26 mph 1029.4mb 56f 51f
1:06am 17 25 mph 1029.7mb 56f 51f
1:00am 20 25 mph 1029.7mb 56f 51f
12:54am 17 24 mph 1029.9mb 56f 51f
12:48am 17 28 mph 1029.8mb 56f 51f
12:42am 22 30 mph 1029.9mb 56f 51f
12:36am 20 24 mph 1030.1mb 56f 51f
12:30am 16 24 mph 1030.1mb 56f 51f
12:24am 17 26 mph 1030.3mb 56f 51f
12:18am 21 25 mph 1030.4mb 56f 51f
12:12am 21 30 mph 1030.5mb 56f 51f
12:06am 22 30 mph 1030.5mb 56f 51f
12:00am 23 30 mph 1030.5mb 56f 51f
Thu 04/17 11:54pm 22 28 mph 1030.5mb 56f 51f
11:48pm 21 28 mph 1030.4mb 56f 51f
11:42pm 22 28 mph 1030.4mb 56f 51f
11:36pm 15 25 mph 1030.3mb 56f 52f
11:30pm 16 26 mph 1030.3mb 56f 51f
11:24pm 15 24 mph 1030.2mb 56f 51f
11:18pm 13 24 mph 1030.3mb 56f 52f
11:12pm 14 24 mph 1030.4mb 56f 52f
11:06pm 14 23 mph 1030.4mb 56f 51f
11:00pm 16 23 mph 1030.4mb 56f 51f
10:54pm 16 26 mph 1030.5mb 56f 52f
10:48pm 13 23 mph 1030.6mb 56f 52f
10:42pm 18 26 mph 1030.6mb 56f 51f
10:36pm 11 23 mph 1030.5mb 56f 52f
10:30pm 18 25 mph 1030.5mb 56f 51f
10:24pm 20 25 mph 1030.5mb 56f 52f
10:18pm 13 25 mph 1030.9mb 56f 52f
10:12pm 18 25 mph 1030.9mb 56f 52f
10:06pm 13 26 mph 1030.9mb 56f 52f
10:00pm 16 26 mph 1030.8mb 56f 52f
9:54pm 16 25 mph 1030.9mb 56f 52f
9:48pm 18 26 mph 1030.7mb 56f 52f
9:42pm 18 25 mph 1030.7mb 56f 52f
9:36pm 15 24 mph 1030.6mb 56f 52f
9:30pm 16 28 mph 1030.4mb 56f 52f
9:24pm 14 22 mph 1030.2mb 56f 52f
9:18pm 17 24 mph 1030.2mb 56f 52f
9:12pm 15 24 mph 1030.1mb 56f 52f
9:06pm 14 26 mph 1030.2mb 56f 52f
9:00pm 13 23 mph 1030.3mb 56f 52f
8:54pm 21 29 mph 1029.9mb 56f 52f
8:48pm 15 24 mph 1030mb 56f 53f
8:42pm 16 24 mph 1030.1mb 56f 52f
8:36pm 15 22 mph 1029.9mb 56f 53f
8:30pm 15 24 mph 1029.7mb 56f 53f
8:24pm 11 22 mph 1029.8mb 56f 53f
8:18pm 14 23 mph 1029.8mb 56f 52f
8:12pm 15 24 mph 1029.8mb 56f 53f
8:06pm 15 26 mph 1029.8mb 56f 52f
8:00pm 16 24 mph 1029.9mb 56f 52f
7:54pm 15 23 mph 1030mb 56f 52f
7:48pm 15 24 mph 1030mb 56f 52f
7:42pm 15 24 mph 1030.1mb 56f 52f
7:36pm 14 28 mph 1030.1mb 56f 53f
7:30pm 14 28 mph 1030.1mb 56f 52f
7:24pm 14 23 mph 1030.2mb 56f 53f
7:18pm 16 23 mph 1030.2mb 56f 53f
7:12pm 20 28 mph 1030.1mb 56f 53f
7:06pm 17 23 mph 1030.1mb 56f 53f
7:00pm 14 25 mph 1030.2mb 56f 53f
6:54pm 14 25 mph 1030.4mb 56f 53f
6:48pm 18 29 mph 1030.3mb 56f 53f
6:42pm 15 29 mph 1030.4mb 56f 53f
6:36pm 16 26 mph 1030.5mb 56f 53f
6:30pm 15 25 mph 1030.5mb 56f 53f
6:24pm 15 25 mph 1030.6mb 56f 53f
6:18pm 15 28 mph 1030.7mb 56f 53f
6:12pm 15 25 mph 1030.8mb 56f 53f
6:06pm 14 28 mph 1030.7mb 56f 53f
6:00pm 15 24 mph 1030.7mb 56f 53f
5:54pm 15 23 mph 1030.7mb 56f 53f
5:48pm 15 24 mph 1030.7mb 56f 53f
5:42pm 15 29 mph 1031mb 56f 53f
5:36pm 29 31 mph 1030.8mb 56f 53f
5:30pm 28 32 mph 1030.8mb 56f 53f
5:24pm 24 32 mph 1030.9mb 56f 53f
5:18pm 28 33 mph 1030.9mb 56f 53f
5:12pm 25 31 mph 1030.9mb 56f 53f
5:06pm 28 32 mph 1030.9mb 56f 53f
5:00pm 24 31 mph 1031mb 56f 54f
4:54pm 29 33 mph 1030.9mb 56f 53f
4:48pm 26 33 mph 1030.7mb 56f 53f
4:42pm 28 32 mph 1030.9mb 56f 53f
4:36pm 28 32 mph 1031mb 56f 53f
4:30pm 28 34 mph 1031mb 56f 54f
4:24pm 26 38 mph 1031.2mb 56f 54f
4:18pm 29 37 mph 1031mb 56f 53f
4:12pm 30 36 mph 1030.9mb 56f 53f
4:06pm 31 36 mph 1031mb 56f 53f
4:00pm 30 34 mph 1031mb 56f 53f
3:54pm 30 37 mph 1031.1mb 56f 53f
3:48pm 28 37 mph 1031.1mb 56f 53f
3:42pm 30 36 mph 1031.1mb 56f 53f
3:36pm 31 37 mph 1031.1mb 56f 53f
3:30pm 29 37 mph 1030.9mb 55f 52f
3:24pm 30 36 mph 1031.1mb 55f 52f
3:18pm 32 37 mph 1031.1mb 55f 52f
3:12pm 31 37 mph 1031.2mb 55f 52f
3:06pm 30 36 mph 1031.2mb 55f 52f
3:00pm 31 36 mph 1031.3mb 55f 52f
2:54pm 31 38 mph 1031.4mb 55f 52f
2:48pm 31 37 mph 1031.4mb 55f 52f
2:42pm 32 36 mph 1031.4mb 55f 52f
2:36pm 31 38 mph 1031.5mb 55f 52f
2:30pm 31 37 mph 1031.5mb 55f 52f
2:24pm 31 37 mph 1031.5mb 55f 52f
2:18pm 31 37 mph 1031.6mb 55f 52f
2:12pm 32 36 mph 1031.7mb 55f 52f
2:06pm 30 37 mph 1031.7mb 55f 52f
2:00pm 31 38 mph 1031.7mb 55f 52f
1:54pm 31 37 mph 1031.8mb 55f 52f
1:48pm 29 38 mph 1031.8mb 55f 52f
1:42pm 30 37 mph 1031.8mb 55f 52f
1:36pm 30 37 mph 1031.7mb 55f 52f
1:30pm 28 36 mph 1031.9mb 55f 52f
1:24pm 29 38 mph 1031.8mb 55f 52f
1:18pm 31 38 mph 1031.8mb 55f 52f
1:12pm 31 37 mph 1031.9mb 54f 52f
1:06pm 33 37 mph 1031.9mb 54f 52f
1:00pm 31 38 mph 1031.9mb 54f 52f
12:54pm 30 37 mph 1031.9mb 54f 52f
12:48pm 32 38 mph 1031.9mb 54f 52f
12:42pm 32 37 mph 1031.9mb 54f 51f
12:36pm 31 39 mph 1031.8mb 54f 52f
12:30pm 31 36 mph 1031.7mb 54f 52f
12:24pm 32 38 mph 1031.8mb 54f 51f
12:18pm 30 37 mph 1031.8mb 54f 52f
12:12pm 30 38 mph 1031.8mb 54f 52f
12:06pm 33 37 mph 1031.8mb 54f 51f
12:00pm 32 38 mph 1031.9mb 54f 51f
11:54am 31 38 mph 1032mb 54f 51f
11:48am 31 39 mph 1032.1mb 54f 51f
11:42am 33 38 mph 1032.2mb 54f 51f
11:36am 32 36 mph 1032.2mb 54f 51f
11:30am 29 36 mph 1032.1mb 54f 51f
11:24am 30 36 mph 1032.2mb 54f 51f
11:18am 31 34 mph 1032.3mb 54f 51f
11:12am 28 36 mph 1032.3mb 53f 51f
11:06am 31 37 mph 1032.3mb 53f 51f
11:00am 30 36 mph 1032.3mb 53f 51f
10:54am 30 38 mph 1032.1mb 53f 51f
10:48am 31 37 mph 1032.1mb 53f 51f
10:42am 30 38 mph 1032mb 53f 51f
10:36am 28 37 mph 1032mb 53f 51f
10:30am 31 37 mph 1031.9mb 53f 51f
10:24am 30 36 mph 1032mb 53f 51f
10:18am 31 37 mph 1031.8mb 53f 51f
10:12am 30 36 mph 1031.7mb 53f 51f
10:06am 30 37 mph 1031.6mb 53f 51f
10:00am 30 37 mph 1031.5mb 53f 51f
9:54am 31 37 mph 1031.5mb 53f 51f
9:48am 31 34 mph 1031.5mb 53f 51f
9:42am 31 37 mph 1031.2mb 53f 51f
9:36am 31 37 mph 1031.2mb 53f 51f
9:30am 30 36 mph 1031.1mb 53f 51f
9:24am 30 37 mph 1031.1mb 53f 51f
9:18am 31 37 mph 1030.9mb 53f 51f
9:12am 31 37 mph 1030.9mb 53f 51f
9:06am 29 37 mph 1030.9mb 53f 51f
9:00am 31 38 mph 1030.7mb 53f 50f
8:54am 31 37 mph 1030.8mb 53f 50f
8:48am 30 36 mph 1030.8mb 53f 50f
8:42am 31 37 mph 1030.8mb 53f 50f
8:36am 31 37 mph 1030.7mb 53f 50f
8:30am 33 39 mph 1030.7mb 53f 50f
8:24am 32 39 mph 1030.8mb 53f 50f
8:18am 30 37 mph 1030.8mb 53f 50f
8:12am 30 36 mph 1030.8mb 54f 50f
8:06am 31 36 mph 1030.7mb 54f 50f
8:00am 31 37 mph 1030.6mb 54f 50f
7:54am 31 37 mph 1030.7mb 54f 50f
7:48am 31 37 mph 1030.7mb 54f 50f
7:42am 31 37 mph 1030.7mb 54f 50f
7:36am 29 36 mph 1030.6mb 54f 50f
7:30am 29 36 mph 1030.7mb 54f 50f
7:24am 31 36 mph 1030.6mb 54f 50f
7:18am 29 34 mph 1030.6mb 54f 50f
7:12am 28 36 mph 1030.5mb 54f 50f
7:06am 29 34 mph 1030.4mb 54f 50f
7:00am 29 36 mph 1030.3mb 54f 50f
6:54am 29 37 mph 1030.1mb 54f 50f
6:48am 30 36 mph 1030mb 54f 50f
6:42am 30 34 mph 1029.9mb 54f 50f
6:36am 31 34 mph 1029.8mb 54f 49f
6:30am 30 36 mph 1029.6mb 54f 50f
6:24am 20 31 mph 1029.8mb 54f 50f
6:18am 20 28 mph 1029.7mb 54f 50f
6:12am 21 29 mph 1029.6mb 54f 49f
6:06am 20 28 mph 1029.7mb 55f 49f
6:00am 20 29 mph 1029.6mb 55f 50f
5:54am 15 28 mph 1029.5mb 55f 49f
5:48am 15 31 mph 1029.5mb 55f 49f
5:42am 17 26 mph 1029.6mb 55f 49f
5:36am 20 30 mph 1029.4mb 55f 49f
5:30am 16 29 mph 1029.3mb 55f 49f
5:24am 14 29 mph 1029.3mb 55f 49f
5:18am 21 30 mph 1029.2mb 55f 49f
5:12am 16 28 mph 1029.2mb 56f 49f
5:06am 14 24 mph 1029.3mb 56f 49f
5:00am 15 26 mph 1029.2mb 56f 49f
4:54am 15 29 mph 1029.2mb 56f 49f
4:48am 14 31 mph 1029.2mb 56f 49f
4:42am 18 29 mph 1029.1mb 56f 49f
4:36am 20 30 mph 1029mb 56f 49f
4:30am 16 28 mph 1029mb 56f 49f
4:24am 17 29 mph 1029.1mb 56f 49f
4:18am 16 31 mph 1029.2mb 56f 49f
4:12am 15 28 mph 1029.3mb 56f 49f
4:06am 20 29 mph 1029.2mb 56f 49f
4:00am 17 29 mph 1029.3mb 56f 49f
3:54am 14 29 mph 1029.2mb 57f 49f
3:48am 20 30 mph 1029.1mb 57f 49f
3:42am 18 28 mph 1029.1mb 57f 49f
3:36am 14 28 mph 1029.1mb 57f 49f
3:30am 15 25 mph 1029.1mb 57f 49f
3:24am 14 25 mph 1029.1mb 57f 49f
3:18am 16 29 mph 1029mb 57f 49f
3:12am 14 28 mph 1029mb 57f 49f
3:06am 15 25 mph 1028.9mb 57f 49f
3:00am 14 24 mph 1029mb 57f 49f
2:54am 15 26 mph 1029mb 57f 49f
2:48am 14 26 mph 1029mb 57f 49f
2:42am 17 29 mph 1029mb 58f 49f
2:36am 14 25 mph 1029mb 58f 49f
2:30am 14 24 mph 1029.1mb 58f 49f
2:24am 14 26 mph 1029mb 58f 49f
2:18am 15 26 mph 1029mb 58f 49f
2:12am 14 29 mph 1029.1mb 58f 49f
2:06am 15 29 mph 1029.2mb 58f 49f
2:00am 15 26 mph 1029.1mb 58f 49f
1:54am 14 26 mph 1029.3mb 58f 49f
1:48am 16 30 mph 1029.5mb 58f 49f
1:42am 14 26 mph 1029.4mb 58f 49f
1:36am 15 26 mph 1029.4mb 58f 49f
1:30am 15 28 mph 1029.3mb 58f 49f
1:24am 15 28 mph 1029.2mb 58f 49f
1:18am 14 24 mph 1029.4mb 58f 49f
1:12am 16 24 mph 1029.4mb 58f 49f
1:06am 17 26 mph 1029.4mb 58f 49f
1:00am 14 26 mph 1029.5mb 58f 49f
12:54am 14 25 mph 1029.4mb 58f 48f
12:48am 14 31 mph 1029.4mb 58f 49f
12:42am 14 25 mph 1029.4mb 58f 48f
12:36am 16 29 mph 1029.5mb 58f 49f
12:30am 16 28 mph 1029.4mb 58f 48f
12:24am 17 28 mph 1029.5mb 58f 48f
12:18am 14 29 mph 1029.5mb 58f 48f
12:12am 14 29 mph 1029.6mb 58f 48f
12:06am 15 28 mph 1029.7mb 58f 48f
12:00am 17 26 mph 1029.8mb 58f 48f
Wed 04/16 11:54pm 15 23 mph 1029.8mb 58f 48f
11:48pm 16 26 mph 1029.9mb 58f 48f
11:42pm 15 28 mph 1030mb 58f 48f
11:36pm 17 25 mph 1029.9mb 58f 48f
11:30pm 16 28 mph 1029.8mb 58f 48f
11:24pm 15 26 mph 1029.8mb 58f 48f
11:18pm 16 26 mph 1029.9mb 58f 48f
11:12pm 16 29 mph 1029.8mb 58f 47f
11:06pm 16 24 mph 1029.8mb 58f 48f
11:00pm 15 28 mph 1029.8mb 58f 48f
10:54pm 16 25 mph 1029.8mb 58f 48f
10:48pm 17 28 mph 1029.8mb 58f 48f
10:42pm 17 28 mph 1029.6mb 58f 48f
10:36pm 17 29 mph 1029.7mb 58f 47f
10:30pm 17 30 mph 1029.9mb 58f 47f
10:24pm 13 24 mph 1029.9mb 58f 47f
10:18pm 16 28 mph 1030.1mb 58f 47f
10:12pm 16 25 mph 1030mb 58f 47f
10:06pm 13 26 mph 1030mb 58f 48f
10:00pm 24 30 mph 1029.8mb 58f 47f
9:54pm 16 30 mph 1029.9mb 58f 47f
9:48pm 20 29 mph 1029.8mb 58f 47f
9:42pm 16 26 mph 1029.9mb 58f 47f
9:36pm 17 28 mph 1030mb 58f 47f
9:30pm 20 29 mph 1029.9mb 58f 47f
9:24pm 22 28 mph 1029.9mb 58f 47f
9:18pm 14 31 mph 1029.9mb 58f 47f
9:12pm 17 30 mph 1030mb 58f 47f
9:06pm 14 29 mph 1029.9mb 58f 47f
9:00pm 17 28 mph 1029.9mb 58f 46f
8:54pm 16 29 mph 1030mb 59f 46f
8:48pm 15 28 mph 1030mb 59f 46f
8:42pm 14 24 mph 1030mb 59f 46f
8:36pm 11 24 mph 1029.9mb 59f 46f
8:30pm 14 25 mph 1029.9mb 59f 46f
8:24pm 16 26 mph 1029.9mb 59f 46f
8:18pm 15 22 mph 1030mb 59f 46f
8:12pm 15 24 mph 1030mb 59f 46f
8:06pm 14 22 mph 1029.9mb 59f 46f
8:00pm 11 22 mph 1029.8mb 59f 46f
7:54pm 13 23 mph 1029.8mb 59f 45f
7:48pm 15 25 mph 1029.7mb 59f 45f
7:42pm 14 25 mph 1029.7mb 59f 46f
7:36pm 11 28 mph 1029.5mb 59f 46f
7:30pm 17 26 mph 1029.4mb 59f 45f
7:24pm 15 24 mph 1029.4mb 59f 45f
7:18pm 16 22 mph 1029.3mb 59f 45f
7:12pm 15 25 mph 1029.3mb 59f 45f
7:06pm 13 22 mph 1029.3mb 59f 45f
7:00pm 16 25 mph 1029.2mb 59f 44f
6:54pm 17 28 mph 1029.2mb 59f 44f
6:48pm 17 26 mph 1029.1mb 59f 45f
6:42pm 16 28 mph 1029.1mb 59f 44f
6:36pm 16 28 mph 1029.1mb 59f 45f
6:30pm 16 26 mph 1029mb 59f 45f
6:24pm 15 25 mph 1028.9mb 59f 45f
6:18pm 14 24 mph 1028.8mb 59f 46f
6:12pm 16 23 mph 1028.7mb 59f 45f
6:06pm 16 26 mph 1028.6mb 59f 46f
6:00pm 17 24 mph 1028.6mb 59f 45f
5:54pm 17 28 mph 1028.5mb 59f 45f
5:48pm 17 26 mph 1028.5mb 59f 45f
5:42pm 18 31 mph 1028.4mb 59f 45f
5:36pm 18 29 mph 1028.5mb 59f 45f
5:30pm 17 29 mph 1028.4mb 59f 45f
5:24pm 20 28 mph 1028.3mb 59f 45f
5:18pm 16 29 mph 1028.2mb 59f 46f
5:12pm 20 28 mph 1028.1mb 59f 45f
5:06pm 18 28 mph 1027.8mb 59f 45f
5:00pm 15 29 mph 1027.9mb 59f 45f
4:54pm 20 29 mph 1027.9mb 60f 46f
4:48pm 15 33 mph 1027.9mb 60f 46f
4:42pm 18 29 mph 1027.9mb 60f 45f
4:36pm 18 30 mph 1028mb 60f 46f
4:30pm 17 26 mph 1027.9mb 60f 45f
4:24pm 20 25 mph 1027.8mb 60f 45f
4:18pm 21 29 mph 1027.9mb 60f 44f
4:12pm 21 30 mph 1027.8mb 60f 45f
4:06pm 17 30 mph 1028mb 60f 45f
4:00pm 18 25 mph 1027.9mb 60f 46f
3:54pm 21 28 mph 1028mb 60f 45f
3:48pm 16 26 mph 1028mb 60f 46f
3:42pm 18 29 mph 1028mb 60f 45f
3:36pm 18 26 mph 1028mb 60f 44f
3:30pm 18 30 mph 1028mb 60f 45f
3:24pm 18 29 mph 1028.1mb 59f 45f
3:18pm 18 33 mph 1028.1mb 59f 45f
3:12pm 18 31 mph 1027.9mb 59f 45f
3:06pm 17 31 mph 1028mb 59f 45f
3:00pm 15 31 mph 1028mb 59f 45f
2:54pm 18 30 mph 1028mb 59f 45f
2:48pm 17 29 mph 1028.1mb 59f 45f